User: anonymous   Login
Location: Unspecified
(0.0000°N, 0.0000°E)
Time: 09:30:05
(UTC+00:00)
Language:

PANSAT - Orbit

View from above orbital plane
View from above orbital plane
View from above satellite
View from above satellite

Ground track
Ground track

The orbit data is extracted from the following two-line orbital elements,

1 25520U 98064B   17327.41073053 +.00001207 +00000-0 +34320-4 0  9990
2 25520 028.4592 339.7206 0005013 331.2023 028.8295 15.28634675058362
Epoch (UTC): 23 November 2017 09:51:27
Eccentricity: 0.0005013
inclination: 28.4592°
perigee height: 476 km
apogee height: 483 km
right ascension of ascending node: 339.7206°
argument of perigee: 331.2023°
revolutions per day: 15.28634675
mean anomaly at epoch: 28.8295°
orbit number at epoch: 5836

The dashed part of the orbit path shows where the satellite is in the earth's shadow,  

DLR